STARLINK-32176, 60340

Orbit data source: Space-Track

STARLINK-32176, 60340 is a payload satellite owned by SpaceX/Seattle (US) in LEO that was launched on Fri, 02 Aug 2024 UTC via an FALCON 9 launch vehicle from the Air Force Eastern Test Range (AFETR). Payload-class satellites include a variety of spacecraft equipped with specific instruments for various scientific and technological missions. These include communications satellites like Starlink; space stations such as the ISS; scientific satellites like the Hubble; Earth observation satellites from companies like Planet Labs, Umbra, and HawkEye 360; GPS; miniature CubeSats for education and research; and military/defense satellites.

Loading next visibility...
Identifier
60340, 2024-136M
Orbit
LEO
Country
Flag of USUS
Related business
Manufacturer
SpaceX/Seattle
Mission
Operational Commercial Communications
Bus & Motor
STARLINK V2M, Unknown motor
Mass
730 kg wet, ~700 kg dry
Launch date (UTC)
2024-08-02 (2 years ago)
Launch vehicle
FALCON 9
Launch site
Air Force Eastern Test Range (AFETR)
Object type
Payload
Rocket body
Debris
Shape & HBR
Box + 2 Pan, 17.7 m
Radar Cross Section
33.884 m², Large (>1 m²)

Expand to show TLE details & history
Last TLE update: 11 hours ago

TLE from 11 hours ago
0 STARLINK-32176
1 60340U 24136M   26035.24218478  .00000153  00000-0  17295-4 0  9998
2 60340  53.1585 231.0238 0001315  96.4098 263.7052 15.30194829 85715
Epoch: 2026-02-04T05:48Z
TLE epoch observation values (Epoch: 2026-02-04T05:48:44.764Z)
Latitude
-0.00009°
Longitude
9.42564°
Altitude
476.229 km
Speed
7.629 km/s
True Right ascension
15h 24m 05s
True Declination
0° 00' 00"
Sunlit
Object was in daylight at epoch
Visualization orbit readout
Latitude
Unknown
Longitude
Unknown
Altitude
Unknown
Speed
Unknown
Apparent Right ascension
Unknown
Apparent Declination
Unknown
Sunlit
N/A
Visualization observer readout
Local Sidereal Time
18:42:10
Azimuth
Unknown
Elevation
Unknown
Doppler factor
Unknown
Orbital elements
Apogee altitude
476.388 km
Perigee altitude
474.586 km
Semi-major axis
6,853.624 km
Eccentricity
0.00013
Inclination
53.1585°
RAAN
231.0238°
Arg. of periapsis
96.4098°
True anomaly
263.69022°
Mean anomaly
263.7052°
Eccentric anomaly
263.69771°
Mean motion
3.82528 °/min
Orbital period
94.11 mins
BSTAR
0.000017295
Loading maneuver chart data...
Computing Atmospheric mass density...
Loading historical data...
Loading historical data...
Loading historical data...
Loading historical data...
Loading historical data...
Loading historical data...
Loading historical data...

Documentation

Showing up to 5 results
|